Wetterdaten: Montag, 03.03.2014
Datum Zeit Temperatur Luftfeuchte Luftdruck Regen Wind Richtung Richtung Taupunkt Windchill Windben
03.03.2014 00:00 0,2 C 97 % 999,7 hPa 0,0 l/m 0,6 km/h (0 Bft) O-SO 112 -0,2 C 0,5 C 5,0 km/h (1 Bft)
03.03.2014 00:05 0,1 C 97 % 999,7 hPa 0,0 l/m 1,3 km/h (1 Bft) NO 45 -0,3 C 0,3 C 0,0 km/h (0 Bft)
03.03.2014 00:10 0,1 C 97 % 999,1 hPa 0,0 l/m 1,1 km/h (1 Bft) N-NO 22 -0,3 C 0,3 C 1,6 km/h (1 Bft)
03.03.2014 00:15 0,1 C 97 % 999,1 hPa 0,0 l/m 0,3 km/h (0 Bft) N-NO 22 -0,3 C 0,3 C 2,1 km/h (1 Bft)
03.03.2014 00:20 0,2 C 97 % 999,1 hPa 0,0 l/m 0,6 km/h (0 Bft) O-NO 67 -0,2 C 0,3 C 0,0 km/h (0 Bft)
03.03.2014 00:25 0,2 C 97 % 999,1 hPa 0,0 l/m 1,0 km/h (0 Bft) S-SW 202 -0,2 C 0,3 C 1,6 km/h (1 Bft)
03.03.2014 00:30 0,2 C 97 % 998,9 hPa 0,0 l/m 0,6 km/h (0 Bft) NW 315 -0,2 C 0,3 C 1,6 km/h (1 Bft)
03.03.2014 00:35 0,2 C 97 % 998,9 hPa 0,0 l/m 1,1 km/h (1 Bft) NO 45 -0,2 C 0,3 C 0,0 km/h (0 Bft)
03.03.2014 00:40 0,3 C 97 % 998,9 hPa 0,0 l/m 2,1 km/h (1 Bft) N-NW 337 -0,1 C 0,4 C 6,0 km/h (2 Bft)
03.03.2014 00:45 0,3 C 97 % 998,9 hPa 0,0 l/m 2,3 km/h (1 Bft) N-NW 337 -0,1 C 0,4 C 2,7 km/h (1 Bft)
03.03.2014 00:50 0,3 C 97 % 998,3 hPa 0,0 l/m 3,2 km/h (1 Bft) N 360 -0,1 C -0,2 C 6,4 km/h (2 Bft)
03.03.2014 00:55 0,3 C 97 % 998,3 hPa 0,0 l/m 4,2 km/h (1 Bft) N 360 -0,1 C -0,7 C 5,5 km/h (1 Bft)
03.03.2014 01:00 0,3 C 97 % 998,3 hPa 0,0 l/m 5,3 km/h (1 Bft) N 360 -0,1 C -1,3 C 8,0 km/h (2 Bft)
03.03.2014 01:05 0,3 C 97 % 998,3 hPa 0,0 l/m 5,1 km/h (1 Bft) N-NW 337 -0,1 C -1,2 C 6,3 km/h (2 Bft)
03.03.2014 01:10 0,3 C 97 % 997,7 hPa 0,0 l/m 5,3 km/h (1 Bft) N 360 -0,1 C -1,3 C 8,4 km/h (2 Bft)
03.03.2014 01:15 0,3 C 97 % 997,7 hPa 0,0 l/m 5,8 km/h (2 Bft) W-NW 292 -0,1 C -1,4 C 6,3 km/h (2 Bft)
03.03.2014 01:20 0,3 C 97 % 997,7 hPa 0,0 l/m 4,8 km/h (1 Bft) W-NW 292 -0,1 C -0,9 C 2,6 km/h (1 Bft)
03.03.2014 01:25 0,3 C 97 % 997,7 hPa 0,0 l/m 4,0 km/h (1 Bft) W-NW 292 -0,1 C -0,6 C 5,5 km/h (1 Bft)
03.03.2014 01:30 0,3 C 97 % 997,6 hPa 0,0 l/m 3,9 km/h (1 Bft) W-NW 292 -0,1 C -0,6 C 6,6 km/h (2 Bft)
03.03.2014 01:35 0,3 C 97 % 997,6 hPa 0,0 l/m 3,9 km/h (1 Bft) W-NW 292 -0,1 C -0,6 C 1,6 km/h (1 Bft)
03.03.2014 01:40 0,2 C 97 % 997,6 hPa 0,0 l/m 1,9 km/h (1 Bft) W 270 -0,2 C 0,4 C 0,0 km/h (0 Bft)
03.03.2014 01:45 0,2 C 97 % 997,6 hPa 0,0 l/m 1,0 km/h (0 Bft) SW 225 -0,2 C 0,4 C 0,0 km/h (0 Bft)
03.03.2014 01:50 0,2 C 97 % 997,5 hPa 0,0 l/m 1,4 km/h (1 Bft) W-SW 247 -0,2 C 0,3 C 3,2 km/h (1 Bft)
03.03.2014 01:55 0,2 C 97 % 997,5 hPa 0,0 l/m 1,8 km/h (1 Bft) W-SW 247 -0,2 C 0,3 C 0,0 km/h (0 Bft)
03.03.2014 02:00 0,1 C 97 % 997,5 hPa 0,0 l/m 1,1 km/h (1 Bft) SW 225 -0,3 C 0,3 C 0,0 km/h (0 Bft)
03.03.2014 02:05 0,1 C 97 % 997,5 hPa 0,0 l/m 0,0 km/h (0 Bft) S-SW 202 -0,3 C 0,3 C 0,0 km/h (0 Bft)
03.03.2014 02:10 0,1 C 97 % 997,1 hPa 0,0 l/m 0,0 km/h (0 Bft) S-SW 202 -0,3 C 0,3 C 0,0 km/h (0 Bft)
03.03.2014 02:15 0,1 C 97 % 997,1 hPa 0,0 l/m 0,0 km/h (0 Bft) N-NW 337 -0,3 C 0,2 C 0,0 km/h (0 Bft)
03.03.2014 02:20 0,0 C 97 % 997,1 hPa 0,0 l/m 0,6 km/h (0 Bft) O-NO 67 -0,4 C 0,2 C 0,0 km/h (0 Bft)
03.03.2014 02:25 -0,1 C 97 % 997,1 hPa 0,0 l/m 0,6 km/h (0 Bft) O-NO 67 -0,5 C 0,2 C 0,0 km/h (0 Bft)
03.03.2014 02:30 -0,1 C 97 % 996,8 hPa 0,0 l/m 0,6 km/h (0 Bft) S-SO 157 -0,5 C 0,1 C 3,2 km/h (1 Bft)
03.03.2014 02:35 -0,1 C 97 % 996,8 hPa 0,0 l/m 1,1 km/h (1 Bft) SO 135 -0,5 C 0,1 C 0,0 km/h (0 Bft)
03.03.2014 02:40 -0,1 C 97 % 996,8 hPa 0,0 l/m 0,8 km/h (0 Bft) S-SW 202 -0,5 C 0,0 C 0,0 km/h (0 Bft)
03.03.2014 02:45 -0,1 C 97 % 996,8 hPa 0,0 l/m 0,6 km/h (0 Bft) S 180 -0,5 C 0,0 C 2,6 km/h (1 Bft)
03.03.2014 02:50 -0,1 C 97 % 996,7 hPa 0,0 l/m 1,4 km/h (1 Bft) S-SW 202 -0,5 C 0,0 C 3,9 km/h (1 Bft)
03.03.2014 02:53 -0,2 C 97 % 996,7 hPa 0,0 l/m 2,6 km/h (1 Bft) O-SO 112 -0,6 C -0,2 C 5,0 km/h (1 Bft)
03.03.2014 02:55 -0,2 C 97 % 996,7 hPa 0,0 l/m 2,6 km/h (1 Bft) O-SO 112 -0,6 C -0,2 C 5,0 km/h (1 Bft)
03.03.2014 03:00 -0,4 C 97 % 996,7 hPa 0,0 l/m 4,0 km/h (1 Bft) W-SW 247 -0,8 C -1,3 C 4,8 km/h (1 Bft)
03.03.2014 03:05 -0,5 C 97 % 996,7 hPa 0,0 l/m 4,8 km/h (1 Bft) S 180 -0,9 C -1,9 C 5,5 km/h (1 Bft)
03.03.2014 03:10 -0,8 C 97 % 996,4 hPa 0,0 l/m 4,7 km/h (1 Bft) W-SW 247 -1,2 C -2,3 C 3,9 km/h (1 Bft)
03.03.2014 03:15 -0,9 C 97 % 996,4 hPa 0,0 l/m 4,2 km/h (1 Bft) W-SW 247 -1,3 C -2,1 C 6,1 km/h (2 Bft)
03.03.2014 03:20 -1,1 C 97 % 996,4 hPa 0,0 l/m 3,7 km/h (1 Bft) S-SO 157 -1,5 C -2,0 C 2,9 km/h (1 Bft)
03.03.2014 03:25 -1,1 C 97 % 996,4 hPa 0,0 l/m 3,7 km/h (1 Bft) S 180 -1,5 C -2,1 C 2,3 km/h (1 Bft)
03.03.2014 03:30 -1,1 C 97 % 996,2 hPa 0,0 l/m 3,7 km/h (1 Bft) S-SO 157 -1,5 C -2,1 C 5,3 km/h (1 Bft)
03.03.2014 03:35 -1,1 C 97 % 996,2 hPa 0,0 l/m 3,5 km/h (1 Bft) SW 225 -1,5 C -2,0 C 3,4 km/h (1 Bft)
03.03.2014 03:40 -1,2 C 97 % 996,2 hPa 0,0 l/m 2,6 km/h (1 Bft) S 180 -1,6 C -1,5 C 0,0 km/h (0 Bft)
03.03.2014 03:45 -1,2 C 96 % 996,2 hPa 0,0 l/m 1,4 km/h (1 Bft) S 180 -1,8 C -1,2 C 2,3 km/h (1 Bft)
03.03.2014 03:50 -1,2 C 97 % 996,1 hPa 0,0 l/m 1,9 km/h (1 Bft) S 180 -1,6 C -1,2 C 2,1 km/h (1 Bft)
03.03.2014 03:55 -1,3 C 97 % 996,1 hPa 0,0 l/m 1,6 km/h (1 Bft) SO 135 -1,7 C -1,3 C 0,0 km/h (0 Bft)
03.03.2014 04:00 -1,5 C 96 % 996,1 hPa 0,0 l/m 0,8 km/h (0 Bft) SO 135 -2,1 C -1,5 C 2,6 km/h (1 Bft)
03.03.2014 04:05 -1,2 C 97 % 996,1 hPa 0,0 l/m 0,8 km/h (0 Bft) S 180 -1,6 C -1,7 C 0,0 km/h (0 Bft)
03.03.2014 04:10 -1,3 C 97 % 996,0 hPa 0,0 l/m 0,5 km/h (0 Bft) W-NW 292 -1,7 C -1,9 C 3,1 km/h (1 Bft)
03.03.2014 04:15 -1,3 C 97 % 996,0 hPa 0,0 l/m 0,5 km/h (0 Bft) W-NW 292 -1,7 C -1,8 C 0,0 km/h (0 Bft)
03.03.2014 04:20 -1,4 C 97 % 996,0 hPa 0,0 l/m 0,6 km/h (0 Bft) N-NW 337 -1,8 C -1,7 C 2,1 km/h (1 Bft)
03.03.2014 04:25 -1,4 C 97 % 996,0 hPa 0,0 l/m 0,5 km/h (0 Bft) O-SO 112 -1,8 C -1,7 C 1,8 km/h (1 Bft)
03.03.2014 04:30 -1,5 C 97 % 996,0 hPa 0,0 l/m 0,8 km/h (0 Bft) N 360 -1,9 C -1,7 C 0,0 km/h (0 Bft)
03.03.2014 04:35 -1,5 C 97 % 996,0 hPa 0,0 l/m 0,6 km/h (0 Bft) SO 135 -1,9 C -1,7 C 0,0 km/h (0 Bft)
03.03.2014 04:40 -1,6 C 97 % 996,0 hPa 0,0 l/m 1,4 km/h (1 Bft) S 180 -2,0 C -1,6 C 4,8 km/h (1 Bft)
03.03.2014 04:45 -1,8 C 97 % 996,0 hPa 0,0 l/m 2,9 km/h (1 Bft) S 180 -2,2 C -2,3 C 2,9 km/h (1 Bft)
03.03.2014 04:50 -1,9 C 97 % 996,1 hPa 0,0 l/m 1,9 km/h (1 Bft) S 180 -2,3 C -1,9 C 1,8 km/h (1 Bft)
03.03.2014 04:55 -2,0 C 97 % 996,1 hPa 0,0 l/m 0,8 km/h (0 Bft) S 180 -2,4 C -1,9 C 0,0 km/h (0 Bft)
03.03.2014 05:00 -2,0 C 97 % 996,1 hPa 0,0 l/m 0,5 km/h (0 Bft) S-SO 157 -2,4 C -2,0 C 0,0 km/h (0 Bft)
03.03.2014 05:05 -2,2 C 97 % 996,1 hPa 0,0 l/m 1,1 km/h (1 Bft) O 90 -2,6 C -2,0 C 3,1 km/h (1 Bft)
03.03.2014 05:10 -2,6 C 97 % 996,0 hPa 0,0 l/m 2,3 km/h (1 Bft) O-SO 112 -3,0 C -2,4 C 1,9 km/h (1 Bft)
03.03.2014 05:15 -2,9 C 96 % 996,0 hPa 0,0 l/m 1,8 km/h (1 Bft) SO 135 -3,4 C -2,8 C 0,0 km/h (0 Bft)
03.03.2014 05:20 -2,9 C 96 % 996,0 hPa 0,0 l/m 0,3 km/h (0 Bft) N 360 -3,4 C -3,2 C 0,0 km/h (0 Bft)
03.03.2014 05:25 -2,8 C 96 % 996,0 hPa 0,0 l/m 0,5 km/h (0 Bft) N 360 -3,3 C -3,3 C 0,0 km/h (0 Bft)
03.03.2014 05:30 -3,2 C 96 % 995,9 hPa 0,0 l/m 0,5 km/h (0 Bft) N-NO 22 -3,7 C -3,5 C 0,0 km/h (0 Bft)
03.03.2014 05:35 -3,4 C 96 % 995,9 hPa 0,0 l/m 0,0 km/h (0 Bft) N-NW 337 -3,9 C -3,7 C 0,0 km/h (0 Bft)
03.03.2014 05:40 -3,5 C 96 % 995,9 hPa 0,0 l/m 0,0 km/h (0 Bft) N-NW 337 -4,0 C -3,9 C 0,0 km/h (0 Bft)
03.03.2014 05:45 -3,7 C 96 % 995,9 hPa 0,0 l/m 0,0 km/h (0 Bft) N-NW 337 -4,2 C -3,9 C 0,0 km/h (0 Bft)
03.03.2014 05:50 -3,7 C 96 % 995,9 hPa 0,0 l/m 0,0 km/h (0 Bft) W-NW 292 -4,2 C -4,0 C 0,0 km/h (0 Bft)
03.03.2014 05:55 -3,4 C 96 % 995,9 hPa 0,0 l/m 0,2 km/h (0 Bft) N-NO 22 -3,9 C -3,9 C 1,9 km/h (1 Bft)
03.03.2014 06:00 -3,5 C 96 % 995,9 hPa 0,0 l/m 0,2 km/h (0 Bft) O-NO 67 -4,0 C -3,9 C 1,9 km/h (1 Bft)
03.03.2014 06:05 -3,4 C 96 % 995,9 hPa 0,0 l/m 0,3 km/h (0 Bft) O-NO 67 -3,9 C -3,9 C 0,0 km/h (0 Bft)
03.03.2014 06:10 -3,4 C 96 % 996,2 hPa 0,0 l/m 0,3 km/h (0 Bft) N-NO 22 -3,9 C -3,9 C 0,0 km/h (0 Bft)
03.03.2014 06:15 -3,4 C 96 % 996,2 hPa 0,0 l/m 0,0 km/h (0 Bft) N-NO 22 -3,9 C -3,9 C 0,0 km/h (0 Bft)
03.03.2014 06:20 -3,5 C 96 % 996,2 hPa 0,0 l/m 0,0 km/h (0 Bft) N 360 -4,0 C -4,0 C 0,0 km/h (0 Bft)
03.03.2014 06:25 -3,4 C 96 % 996,2 hPa 0,0 l/m 0,0 km/h (0 Bft) N-NW 337 -3,9 C -4,0 C 0,0 km/h (0 Bft)
03.03.2014 06:30 -3,4 C 96 % 996,2 hPa 0,0 l/m 0,5 km/h (0 Bft) N-NO 22 -3,9 C -3,9 C 1,8 km/h (1 Bft)
03.03.2014 06:35 -3,2 C 96 % 996,2 hPa 0,0 l/m 1,6 km/h (1 Bft) N 360 -3,7 C -3,7 C 3,9 km/h (1 Bft)
03.03.2014 06:40 -3,3 C 96 % 996,2 hPa 0,0 l/m 2,3 km/h (1 Bft) S 180 -3,8 C -3,7 C 4,0 km/h (1 Bft)
03.03.2014 06:45 -3,4 C 96 % 996,2 hPa 0,0 l/m 1,6 km/h (1 Bft) S 180 -3,9 C -3,5 C 0,0 km/h (0 Bft)
03.03.2014 06:50 -3,3 C 96 % 996,2 hPa 0,0 l/m 0,3 km/h (0 Bft) N-NW 337 -3,8 C -3,6 C 0,0 km/h (0 Bft)
03.03.2014 06:55 -3,4 C 96 % 996,2 hPa 0,0 l/m 0,0 km/h (0 Bft) S 180 -3,9 C -3,6 C 0,0 km/h (0 Bft)
03.03.2014 07:00 -3,3 C 96 % 996,2 hPa 0,0 l/m 0,3 km/h (0 Bft) N 360 -3,8 C -3,6 C 0,0 km/h (0 Bft)
03.03.2014 07:05 -3,5 C 96 % 996,2 hPa 0,0 l/m 0,3 km/h (0 Bft) NW 315 -4,0 C -3,6 C 0,0 km/h (0 Bft)
03.03.2014 07:10 -3,3 C 96 % 996,2 hPa 0,0 l/m 0,3 km/h (0 Bft) O-NO 67 -3,8 C -3,6 C 0,0 km/h (0 Bft)
03.03.2014 07:15 -3,1 C 96 % 996,2 hPa 0,0 l/m 1,0 km/h (0 Bft) S 180 -3,6 C -3,6 C 3,5 km/h (1 Bft)
03.03.2014 07:20 -2,8 C 96 % 996,2 hPa 0,0 l/m 1,6 km/h (1 Bft) N-NO 22 -3,3 C -3,4 C 1,6 km/h (1 Bft)
03.03.2014 07:25 -2,4 C 96 % 996,2 hPa 0,0 l/m 2,1 km/h (1 Bft) O-SO 112 -2,9 C -3,3 C 3,9 km/h (1 Bft)
03.03.2014 07:30 -2,9 C 96 % 996,1 hPa 0,0 l/m 1,0 km/h (0 Bft) NW 315 -3,4 C -3,1 C 0,0 km/h (0 Bft)
03.03.2014 07:35 -2,9 C 96 % 996,1 hPa 0,0 l/m 0,3 km/h (0 Bft) O-SO 112 -3,4 C -3,2 C 2,9 km/h (1 Bft)
03.03.2014 07:40 -2,6 C 96 % 996,1 hPa 0,0 l/m 0,3 km/h (0 Bft) N-NO 22 -3,1 C -3,0 C 0,0 km/h (0 Bft)
03.03.2014 07:45 -2,8 C 96 % 996,1 hPa 0,0 l/m 0,3 km/h (0 Bft) N-NO 22 -3,3 C -2,8 C 0,0 km/h (0 Bft)
03.03.2014 07:48 -2,7 C 96 % 996,1 hPa 0,0 l/m 1,6 km/h (1 Bft) NW 315 -3,2 C -2,7 C 3,4 km/h (1 Bft)
03.03.2014 07:50 -2,7 C 96 % 996,1 hPa 0,0 l/m 1,6 km/h (1 Bft) NW 315 -3,2 C -2,7 C 3,4 km/h (1 Bft)
03.03.2014 07:55 -2,7 C 96 % 996,1 hPa 0,0 l/m 2,1 km/h (1 Bft) W 270 -3,2 C -2,6 C 1,8 km/h (1 Bft)
03.03.2014 08:00 -2,5 C 96 % 996,1 hPa 0,0 l/m 0,8 km/h (0 Bft) NO 45 -3,0 C -2,5 C 0,0 km/h (0 Bft)
03.03.2014 08:05 -2,4 C 96 % 996,1 hPa 0,0 l/m 0,5 km/h (0 Bft) S 180 -2,9 C -2,5 C 3,2 km/h (1 Bft)
03.03.2014 08:10 -2,2 C 96 % 995,3 hPa 0,0 l/m 2,1 km/h (1 Bft) O-NO 67 -2,7 C -2,2 C 5,0 km/h (1 Bft)
03.03.2014 08:15 -1,9 C 96 % 995,3 hPa 0,0 l/m 3,9 km/h (1 Bft) O-SO 112 -2,5 C -3,1 C 6,4 km/h (2 Bft)
03.03.2014 08:20 -1,6 C 96 % 995,3 hPa 0,0 l/m 4,3 km/h (1 Bft) O-NO 67 -2,2 C -2,7 C 6,9 km/h (2 Bft)
03.03.2014 08:25 -1,2 C 97 % 995,3 hPa 0,0 l/m 4,5 km/h (1 Bft) O 90 -1,6 C -1,3 C 4,2 km/h (1 Bft)
03.03.2014 08:30 -0,9 C 97 % 995,4 hPa 0,0 l/m 4,8 km/h (1 Bft) O 90 -1,3 C 0,1 C 5,3 km/h (1 Bft)
03.03.2014 08:35 -0,9 C 97 % 995,4 hPa 0,0 l/m 2,9 km/h (1 Bft) NO 45 -1,3 C 2,7 C 2,3 km/h (1 Bft)
03.03.2014 08:40 -0,5 C 97 % 995,4 hPa 0,0 l/m 3,5 km/h (1 Bft) O 90 -0,9 C 1,9 C 6,4 km/h (2 Bft)
03.03.2014 08:45 -0,3 C 97 % 995,4 hPa 0,0 l/m 4,8 km/h (1 Bft) O-SO 112 -0,7 C 1,3 C 6,8 km/h (2 Bft)
03.03.2014 08:50 0,1 C 97 % 995,8 hPa 0,0 l/m 4,7 km/h (1 Bft) O 90 -0,3 C 3,1 C 6,4 km/h (2 Bft)
03.03.2014 08:55 0,2 C 97 % 995,8 hPa 0,0 l/m 4,7 km/h (1 Bft) O-NO 67 -0,2 C 3,9 C 6,4 km/h (2 Bft)
03.03.2014 09:00 0,6 C 97 % 995,8 hPa 0,0 l/m 5,0 km/h (1 Bft) S 180 0,2 C 5,1 C 7,2 km/h (2 Bft)
03.03.2014 09:05 0,8 C 97 % 995,8 hPa 0,0 l/m 4,8 km/h (1 Bft) S 180 0,4 C 6,1 C 7,2 km/h (2 Bft)
03.03.2014 09:10 1,4 C 97 % 996,1 hPa 0,0 l/m 4,7 km/h (1 Bft) S 180 1,0 C 7,3 C 9,2 km/h (2 Bft)
03.03.2014 09:15 2,1 C 96 % 996,1 hPa 0,0 l/m 4,5 km/h (1 Bft) SO 135 1,5 C 7,7 C 7,2 km/h (2 Bft)
03.03.2014 09:20 2,5 C 96 % 996,1 hPa 0,0 l/m 4,2 km/h (1 Bft) S 180 1,9 C 8,0 C 6,8 km/h (2 Bft)
03.03.2014 09:25 3,0 C 95 % 996,1 hPa 0,0 l/m 4,3 km/h (1 Bft) O-SO 112 2,3 C 8,2 C 4,5 km/h (1 Bft)
03.03.2014 09:30 3,8 C 94 % 996,5 hPa 0,0 l/m 4,3 km/h (1 Bft) S-SO 157 2,9 C 8,2 C 10,1 km/h (2 Bft)
03.03.2014 09:35 4,2 C 93 % 996,5 hPa 0,0 l/m 4,7 km/h (1 Bft) S 180 3,2 C 7,8 C 7,4 km/h (2 Bft)
03.03.2014 09:40 5,1 C 89 % 996,5 hPa 0,0 l/m 6,4 km/h (2 Bft) S-SO 157 3,4 C 7,2 C 14,0 km/h (3 Bft)
03.03.2014 09:45 5,4 C 86 % 996,5 hPa 0,0 l/m 7,6 km/h (2 Bft) S 180 3,3 C 5,6 C 10,0 km/h (2 Bft)
03.03.2014 09:50 5,4 C 75 % 996,9 hPa 0,0 l/m 9,0 km/h (2 Bft) S 180 1,3 C 3,6 C 10,6 km/h (2 Bft)
03.03.2014 09:55 5,3 C 74 % 996,9 hPa 0,0 l/m 9,2 km/h (2 Bft) S 180 1,0 C 3,2 C 13,0 km/h (3 Bft)
03.03.2014 10:00 5,7 C 73 % 996,9 hPa 0,0 l/m 10,1 km/h (2 Bft) S 180 1,2 C 1,8 C 16,4 km/h (3 Bft)
03.03.2014 10:05 5,6 C 71 % 996,9 hPa 0,0 l/m 10,1 km/h (2 Bft) S-SW 202 0,8 C 1,6 C 11,1 km/h (2 Bft)
03.03.2014 10:10 5,2 C 73 % 997,4 hPa 0,0 l/m 8,5 km/h (2 Bft) S-SW 202 0,8 C 3,0 C 13,4 km/h (3 Bft)
03.03.2014 10:15 5,3 C 69 % 997,4 hPa 0,0 l/m 8,7 km/h (2 Bft) S 180 0,1 C 2,6 C 11,9 km/h (2 Bft)
03.03.2014 10:20 5,5 C 68 % 997,4 hPa 0,0 l/m 9,2 km/h (2 Bft) S-SW 202 0,1 C 2,4 C 21,4 km/h (4 Bft)
03.03.2014 10:25 5,7 C 71 % 997,4 hPa 0,0 l/m 8,7 km/h (2 Bft) S 180 0,9 C 3,1 C 8,9 km/h (2 Bft)
03.03.2014 10:30 6,3 C 67 % 997,7 hPa 0,0 l/m 8,5 km/h (2 Bft) S-SW 202 0,6 C 3,9 C 8,7 km/h (2 Bft)
03.03.2014 10:35 6,9 C 68 % 997,7 hPa 0,0 l/m 7,4 km/h (2 Bft) S 180 1,4 C 5,7 C 6,4 km/h (2 Bft)
03.03.2014 10:40 7,2 C 65 % 997,7 hPa 0,0 l/m 7,7 km/h (2 Bft) S-SW 202 1,1 C 6,1 C 8,5 km/h (2 Bft)
03.03.2014 10:45 7,3 C 62 % 997,7 hPa 0,0 l/m 7,7 km/h (2 Bft) S-SO 157 0,5 C 6,2 C 8,0 km/h (2 Bft)
03.03.2014 10:50 7,8 C 62 % 997,8 hPa 0,0 l/m 8,4 km/h (2 Bft) S-SW 202 1,0 C 5,8 C 14,5 km/h (3 Bft)
03.03.2014 10:55 8,0 C 57 % 997,8 hPa 0,0 l/m 8,4 km/h (2 Bft) S 180 0,0 C 6,0 C 12,2 km/h (2 Bft)
03.03.2014 11:00 8,2 C 56 % 997,8 hPa 0,0 l/m 8,5 km/h (2 Bft) S 180 -0,0 C 6,5 C 14,2 km/h (3 Bft)
03.03.2014 11:05 8,4 C 56 % 997,8 hPa 0,0 l/m 9,3 km/h (2 Bft) S-SO 157 0,1 C 5,7 C 17,2 km/h (3 Bft)
03.03.2014 11:10 9,0 C 56 % 997,8 hPa 0,0 l/m 9,8 km/h (2 Bft) S 180 0,7 C 5,8 C 8,5 km/h (2 Bft)
03.03.2014 11:15 9,4 C 55 % 997,8 hPa 0,0 l/m 8,7 km/h (2 Bft) S-SO 157 0,8 C 7,3 C 11,1 km/h (2 Bft)
03.03.2014 11:20 9,6 C 52 % 997,8 hPa 0,0 l/m 8,2 km/h (2 Bft) S-SW 202 0,2 C 8,4 C 9,5 km/h (2 Bft)
03.03.2014 11:25 9,9 C 52 % 997,8 hPa 0,0 l/m 7,6 km/h (2 Bft) S-SW 202 0,5 C 9,2 C 9,2 km/h (2 Bft)
03.03.2014 11:30 10,0 C 50 % 998,1 hPa 0,0 l/m 9,0 km/h (2 Bft) S 180 0,1 C 7,9 C 13,0 km/h (3 Bft)
03.03.2014 11:35 10,1 C 47 % 998,1 hPa 0,0 l/m 9,5 km/h (2 Bft) S 180 -0,7 C 7,7 C 18,5 km/h (3 Bft)
03.03.2014 11:40 10,4 C 48 % 998,1 hPa 0,0 l/m 9,0 km/h (2 Bft) S-SW 202 -0,1 C 8,1 C 15,0 km/h (3 Bft)
03.03.2014 11:45 10,4 C 46 % 998,1 hPa 0,0 l/m 9,7 km/h (2 Bft) S-SW 202 -0,7 C 7,7 C 12,2 km/h (2 Bft)
03.03.2014 11:50 10,2 C 46 % 997,9 hPa 0,0 l/m 9,0 km/h (2 Bft) W-SW 247 -0,9 C 8,2 C 8,2 km/h (2 Bft)
03.03.2014 11:55 10,3 C 48 % 997,9 hPa 0,0 l/m 8,9 km/h (2 Bft) S 180 -0,2 C 8,5 C 9,8 km/h (2 Bft)
03.03.2014 12:00 10,2 C 47 % 997,9 hPa 0,0 l/m 8,2 km/h (2 Bft) S 180 -0,6 C 8,8 C 9,5 km/h (2 Bft)
03.03.2014 12:05 10,2 C 48 % 997,9 hPa 0,0 l/m 7,9 km/h (2 Bft) SO 135 -0,3 C 9,2 C 7,1 km/h (2 Bft)
03.03.2014 12:10 9,5 C 49 % 998,3 hPa 0,0 l/m 7,4 km/h (2 Bft) SO 135 -0,7 C 9,5 C 9,5 km/h (2 Bft)
03.03.2014 12:15 9,7 C 50 % 998,3 hPa 0,0 l/m 7,4 km/h (2 Bft) S 180 -0,2 C 9,2 C 7,6 km/h (2 Bft)
03.03.2014 12:20 9,1 C 49 % 998,3 hPa 0,0 l/m 7,7 km/h (2 Bft) S-SO 157 -1,0 C 8,3 C 7,4 km/h (2 Bft)
03.03.2014 12:25 9,6 C 50 % 998,3 hPa 0,0 l/m 7,9 km/h (2 Bft) SW 225 -0,3 C 8,2 C 6,1 km/h (2 Bft)
03.03.2014 12:30 9,8 C 49 % 998,2 hPa 0,0 l/m 8,4 km/h (2 Bft) S 180 -0,4 C 8,6 C 11,1 km/h (2 Bft)
03.03.2014 12:35 9,7 C 48 % 998,2 hPa 0,0 l/m 9,0 km/h (2 Bft) S 180 -0,8 C 8,1 C 6,4 km/h (2 Bft)
03.03.2014 12:40 10,0 C 49 % 998,2 hPa 0,0 l/m 8,0 km/h (2 Bft) S-SW 202 -0,2 C 9,2 C 3,7 km/h (1 Bft)
03.03.2014 12:45 10,1 C 48 % 998,2 hPa 0,0 l/m 7,1 km/h (2 Bft) W-SW 247 -0,4 C 10,6 C 7,2 km/h (2 Bft)
03.03.2014 12:48 9,9 C 49 % 997,9 hPa 0,0 l/m 7,4 km/h (2 Bft) SO 135 -0,3 C 10,5 C 11,3 km/h (2 Bft)
03.03.2014 12:50 9,9 C 49 % 997,9 hPa 0,0 l/m 7,4 km/h (2 Bft) SO 135 -0,3 C 10,5 C 11,3 km/h (2 Bft)
03.03.2014 12:55 10,3 C 48 % 997,9 hPa 0,0 l/m 7,1 km/h (2 Bft) S 180 -0,2 C 10,8 C 7,6 km/h (2 Bft)
03.03.2014 13:00 10,6 C 47 % 997,9 hPa 0,0 l/m 6,9 km/h (2 Bft) S 180 -0,2 C 11,6 C 7,4 km/h (2 Bft)
03.03.2014 13:05 10,4 C 47 % 997,9 hPa 0,0 l/m 7,2 km/h (2 Bft) N-NO 22 -0,4 C 11,7 C 9,8 km/h (2 Bft)
03.03.2014 13:10 11,3 C 46 % 997,8 hPa 0,0 l/m 6,1 km/h (2 Bft) SW 225 0,1 C 12,7 C 7,6 km/h (2 Bft)
03.03.2014 13:15 11,0 C 44 % 997,8 hPa 0,0 l/m 7,2 km/h (2 Bft) S 180 -0,8 C 12,4 C 10,3 km/h (2 Bft)
03.03.2014 13:20 11,3 C 45 % 997,8 hPa 0,0 l/m 8,7 km/h (2 Bft) S-SO 157 -0,2 C 11,3 C 10,6 km/h (2 Bft)
03.03.2014 13:25 11,2 C 45 % 997,8 hPa 0,0 l/m 8,2 km/h (2 Bft) S-SO 157 -0,3 C 12,0 C 6,8 km/h (2 Bft)
03.03.2014 13:30 10,4 C 46 % 997,6 hPa 0,0 l/m 6,4 km/h (2 Bft) W-SW 247 -0,7 C 12,6 C 8,9 km/h (2 Bft)
03.03.2014 13:35 9,9 C 49 % 997,6 hPa 0,0 l/m 6,0 km/h (2 Bft) W 270 -0,3 C 11,8 C 6,4 km/h (2 Bft)
03.03.2014 13:40 9,5 C 51 % 997,6 hPa 0,0 l/m 6,9 km/h (2 Bft) W-SW 247 -0,1 C 9,9 C 7,9 km/h (2 Bft)
03.03.2014 13:45 9,4 C 51 % 997,6 hPa 0,0 l/m 7,1 km/h (2 Bft) S 180 -0,2 C 9,3 C 8,0 km/h (2 Bft)
03.03.2014 13:50 9,3 C 52 % 997,5 hPa 0,0 l/m 6,8 km/h (2 Bft) S-SW 202 -0,0 C 9,1 C 6,9 km/h (2 Bft)
03.03.2014 13:55 9,2 C 53 % 997,5 hPa 0,0 l/m 6,6 km/h (2 Bft) S 180 0,1 C 9,2 C 6,4 km/h (2 Bft)
03.03.2014 14:00 9,1 C 53 % 997,5 hPa 0,0 l/m 6,3 km/h (2 Bft) W-SW 247 0,0 C 9,3 C 7,7 km/h (2 Bft)
03.03.2014 14:05 9,2 C 54 % 997,5 hPa 0,0 l/m 6,3 km/h (2 Bft) S-SW 202 0,4 C 9,1 C 10,9 km/h (2 Bft)
03.03.2014 14:10 9,1 C 56 % 997,1 hPa 0,0 l/m 6,1 km/h (2 Bft) SW 225 0,8 C 9,1 C 7,7 km/h (2 Bft)
03.03.2014 14:15 9,1 C 55 % 997,1 hPa 0,0 l/m 6,3 km/h (2 Bft) S 180 0,5 C 8,9 C 7,2 km/h (2 Bft)
03.03.2014 14:20 8,8 C 55 % 997,1 hPa 0,0 l/m 6,0 km/h (2 Bft) O-SO 112 0,3 C 8,9 C 2,3 km/h (1 Bft)
03.03.2014 14:25 8,5 C 56 % 997,1 hPa 0,0 l/m 5,3 km/h (1 Bft) SW 225 0,2 C 8,9 C 4,7 km/h (1 Bft)
03.03.2014 14:30 8,4 C 58 % 997,1 hPa 0,0 l/m 6,3 km/h (2 Bft) S-SW 202 0,6 C 8,5 C 7,6 km/h (2 Bft)
03.03.2014 14:35 8,4 C 58 % 997,1 hPa 0,0 l/m 7,2 km/h (2 Bft) S-SW 202 0,6 C 7,5 C 8,7 km/h (2 Bft)
03.03.2014 14:40 9,2 C 58 % 997,1 hPa 0,0 l/m 7,1 km/h (2 Bft) W-SW 247 1,4 C 8,1 C 7,9 km/h (2 Bft)
03.03.2014 14:45 9,3 C 56 % 997,1 hPa 0,0 l/m 6,8 km/h (2 Bft) W 270 1,0 C 9,1 C 11,4 km/h (2 Bft)
03.03.2014 14:50 9,0 C 57 % 997,0 hPa 0,0 l/m 7,2 km/h (2 Bft) W-SW 247 0,9 C 8,8 C 8,7 km/h (2 Bft)
03.03.2014 14:55 8,4 C 57 % 997,0 hPa 0,0 l/m 7,1 km/h (2 Bft) SW 225 0,4 C 8,3 C 9,7 km/h (2 Bft)
03.03.2014 15:00 7,7 C 59 % 997,0 hPa 0,0 l/m 7,1 km/h (2 Bft) S 180 0,2 C 7,3 C 5,8 km/h (2 Bft)
03.03.2014 15:05 7,3 C 59 % 997,0 hPa 0,0 l/m 7,4 km/h (2 Bft) W-SW 247 -0,2 C 6,4 C 8,7 km/h (2 Bft)
03.03.2014 15:10 6,9 C 60 % 997,2 hPa 0,0 l/m 7,6 km/h (2 Bft) W-SW 247 -0,3 C 5,5 C 10,6 km/h (2 Bft)
03.03.2014 15:15 6,6 C 62 % 997,2 hPa 0,0 l/m 7,7 km/h (2 Bft) W-SW 247 -0,1 C 4,9 C 11,7 km/h (2 Bft)
03.03.2014 15:20 6,3 C 63 % 997,2 hPa 0,0 l/m 7,4 km/h (2 Bft) SW 225 -0,2 C 4,7 C 7,7 km/h (2 Bft)
03.03.2014 15:25 6,1 C 64 % 997,2 hPa 0,0 l/m 7,4 km/h (2 Bft) S 180 -0,2 C 4,4 C 8,5 km/h (2 Bft)
03.03.2014 15:30 5,9 C 66 % 997,2 hPa 0,0 l/m 6,6 km/h (2 Bft) S 180 0,0 C 5,0 C 6,4 km/h (2 Bft)
03.03.2014 15:35 5,8 C 67 % 997,2 hPa 0,0 l/m 6,3 km/h (2 Bft) S-SO 157 0,2 C 5,1 C 4,7 km/h (1 Bft)
03.03.2014 15:40 5,6 C 68 % 997,2 hPa 0,0 l/m 6,4 km/h (2 Bft) S-SW 202 0,2 C 4,7 C 3,5 km/h (1 Bft)
03.03.2014 15:45 5,4 C 69 % 997,2 hPa 0,0 l/m 5,6 km/h (1 Bft) S-SO 157 0,2 C 4,6 C 10,9 km/h (2 Bft)
03.03.2014 15:50 5,0 C 72 % 997,2 hPa 0,0 l/m 5,5 km/h (1 Bft) S-SO 157 0,4 C 3,7 C 6,8 km/h (2 Bft)
03.03.2014 15:55 4,8 C 73 % 997,2 hPa 0,0 l/m 6,1 km/h (2 Bft) S-SW 202 0,4 C 2,9 C 7,6 km/h (2 Bft)
03.03.2014 16:00 4,6 C 81 % 997,2 hPa 0,0 l/m 4,7 km/h (1 Bft) S 180 1,6 C 3,3 C 3,9 km/h (1 Bft)
03.03.2014 16:05 4,5 C 83 % 997,2 hPa 0,0 l/m 5,0 km/h (1 Bft) S 180 1,9 C 3,2 C 8,9 km/h (2 Bft)
03.03.2014 16:10 4,3 C 85 % 997,1 hPa 0,0 l/m 5,6 km/h (1 Bft) SO 135 2,0 C 2,8 C 4,8 km/h (1 Bft)
03.03.2014 16:15 4,2 C 86 % 997,1 hPa 0,0 l/m 5,0 km/h (1 Bft) S-SO 157 2,1 C 3,1 C 7,1 km/h (2 Bft)
03.03.2014 16:20 3,9 C 87 % 997,1 hPa 0,0 l/m 5,1 km/h (1 Bft) S 180 1,9 C 2,8 C 5,1 km/h (1 Bft)
03.03.2014 16:25 3,8 C 88 % 997,1 hPa 0,0 l/m 5,8 km/h (2 Bft) S 180 2,0 C 2,4 C 6,4 km/h (2 Bft)
03.03.2014 16:30 3,7 C 89 % 997,3 hPa 0,0 l/m 4,5 km/h (1 Bft) S 180 2,1 C 2,8 C 3,2 km/h (1 Bft)
03.03.2014 16:35 3,7 C 89 % 997,3 hPa 0,0 l/m 4,2 km/h (1 Bft) O-NO 67 2,1 C 3,0 C 3,2 km/h (1 Bft)
03.03.2014 16:40 3,5 C 89 % 997,3 hPa 0,0 l/m 4,5 km/h (1 Bft) O-SO 112 1,9 C 2,7 C 7,7 km/h (2 Bft)
03.03.2014 16:45 3,4 C 90 % 997,3 hPa 0,0 l/m 5,0 km/h (1 Bft) O-SO 112 1,9 C 2,4 C 5,8 km/h (2 Bft)
03.03.2014 16:50 3,3 C 90 % 997,2 hPa 0,0 l/m 5,3 km/h (1 Bft) O-SO 112 1,8 C 2,1 C 4,3 km/h (1 Bft)
03.03.2014 16:55 3,3 C 90 % 997,2 hPa 0,0 l/m 4,5 km/h (1 Bft) O-NO 67 1,8 C 2,4 C 4,2 km/h (1 Bft)
03.03.2014 17:00 3,2 C 91 % 997,2 hPa 0,0 l/m 3,2 km/h (1 Bft) O-SO 112 1,9 C 3,1 C 6,6 km/h (2 Bft)
03.03.2014 17:05 3,2 C 91 % 997,2 hPa 0,0 l/m 3,4 km/h (1 Bft) O-SO 112 1,9 C 3,1 C 4,8 km/h (1 Bft)
03.03.2014 17:10 3,1 C 92 % 997,2 hPa 0,0 l/m 2,7 km/h (1 Bft) O 90 1,9 C 3,4 C 0,0 km/h (0 Bft)
03.03.2014 17:15 3,1 C 92 % 997,2 hPa 0,0 l/m 2,1 km/h (1 Bft) O-NO 67 1,9 C 3,4 C 3,2 km/h (1 Bft)
03.03.2014 17:20 3,1 C 92 % 997,2 hPa 0,0 l/m 3,1 km/h (1 Bft) O-NO 67 1,9 C 3,2 C 3,2 km/h (1 Bft)
03.03.2014 17:23 3,1 C 92 % 997,2 hPa 0,0 l/m 3,2 km/h (1 Bft) O 90 1,9 C 3,1 C 3,4 km/h (1 Bft)
03.03.2014 17:25 3,1 C 92 % 997,2 hPa 0,0 l/m 3,2 km/h (1 Bft) O 90 1,9 C 3,1 C 3,4 km/h (1 Bft)
03.03.2014 17:30 3,0 C 93 % 997,4 hPa 0,0 l/m 2,7 km/h (1 Bft) O-NO 67 2,0 C 3,4 C 4,3 km/h (1 Bft)
03.03.2014 17:35 3,0 C 93 % 997,4 hPa 0,0 l/m 2,4 km/h (1 Bft) N-NO 22 2,0 C 3,4 C 3,9 km/h (1 Bft)
03.03.2014 17:40 2,9 C 94 % 997,4 hPa 0,0 l/m 2,3 km/h (1 Bft) O 90 2,0 C 3,4 C 2,4 km/h (1 Bft)
03.03.2014 17:45 2,8 C 94 % 997,4 hPa 0,0 l/m 2,3 km/h (1 Bft) O-NO 67 1,9 C 3,3 C 2,1 km/h (1 Bft)
03.03.2014 17:50 2,7 C 94 % 997,1 hPa 0,0 l/m 2,6 km/h (1 Bft) O-SO 112 1,8 C 3,1 C 3,2 km/h (1 Bft)
03.03.2014 17:55 2,7 C 95 % 997,1 hPa 0,0 l/m 3,2 km/h (1 Bft) O 90 2,0 C 2,7 C 6,1 km/h (2 Bft)
03.03.2014 18:00 2,7 C 95 % 997,1 hPa 0,0 l/m 5,5 km/h (1 Bft) O-SO 112 2,0 C 1,6 C 9,0 km/h (2 Bft)
03.03.2014 18:06 2,8 C 95 % 997,2 hPa 0,0 l/m 6,8 km/h (2 Bft) SO 135 2,1 C 0,8 C 6,9 km/h (2 Bft)
03.03.2014 18:07 2,8 C 95 % 997,2 hPa 0,0 l/m 6,8 km/h (2 Bft) SO 135 2,1 C 0,8 C 6,9 km/h (2 Bft)
03.03.2014 18:08 2,8 C 95 % 997,2 hPa 0,0 l/m 6,8 km/h (2 Bft) SO 135 2,1 C 0,8 C 6,9 km/h (2 Bft)
03.03.2014 18:09 2,8 C 95 % 997,2 hPa 0,0 l/m 6,8 km/h (2 Bft) SO 135 2,1 C 0,8 C 6,9 km/h (2 Bft)
03.03.2014 18:10 2,8 C 95 % 997,2 hPa 0,0 l/m 6,8 km/h (2 Bft) SO 135 2,1 C 0,8 C 6,9 km/h (2 Bft)
03.03.2014 18:12 2,8 C 95 % 997,2 hPa 0,0 l/m 6,9 km/h (2 Bft) O-SO 112 2,1 C 0,6 C 7,4 km/h (2 Bft)
03.03.2014 18:15 2,8 C 95 % 997,2 hPa 0,0 l/m 6,9 km/h (2 Bft) O-SO 112 2,1 C 0,6 C 7,4 km/h (2 Bft)
03.03.2014 18:20 2,7 C 95 % 997,2 hPa 0,0 l/m 6,9 km/h (2 Bft) O-SO 112 2,0 C 0,6 C 7,7 km/h (2 Bft)
03.03.2014 18:25 2,7 C 95 % 997,2 hPa 0,0 l/m 6,8 km/h (2 Bft) O-SO 112 2,0 C 0,8 C 7,4 km/h (2 Bft)
03.03.2014 18:30 2,6 C 95 % 997,2 hPa 0,0 l/m 6,0 km/h (2 Bft) O-NO 67 1,9 C 1,4 C 6,8 km/h (2 Bft)
03.03.2014 18:35 2,6 C 95 % 997,2 hPa 0,0 l/m 5,6 km/h (1 Bft) O-SO 112 1,9 C 1,6 C 6,8 km/h (2 Bft)
03.03.2014 18:40 2,6 C 95 % 997,2 hPa 0,0 l/m 6,1 km/h (2 Bft) O-SO 112 1,9 C 1,2 C 7,2 km/h (2 Bft)
03.03.2014 18:45 2,5 C 95 % 997,2 hPa 0,0 l/m 5,6 km/h (1 Bft) O 90 1,8 C 1,4 C 5,1 km/h (1 Bft)
03.03.2014 18:50 2,5 C 95 % 997,3 hPa 0,0 l/m 4,8 km/h (1 Bft) O 90 1,8 C 1,8 C 6,0 km/h (2 Bft)
03.03.2014 18:55 2,6 C 95 % 997,3 hPa 0,0 l/m 5,1 km/h (1 Bft) O-NO 67 1,9 C 1,6 C 4,8 km/h (1 Bft)
03.03.2014 19:00 2,5 C 95 % 997,3 hPa 0,0 l/m 4,8 km/h (1 Bft) S-SO 157 1,8 C 1,6 C 0,0 km/h (0 Bft)
03.03.2014 19:05 2,5 C 95 % 997,3 hPa 0,0 l/m 4,2 km/h (1 Bft) SO 135 1,8 C 1,9 C 3,2 km/h (1 Bft)
03.03.2014 19:10 2,4 C 95 % 997,3 hPa 0,0 l/m 2,9 km/h (1 Bft) O-SO 112 1,7 C 2,7 C 3,5 km/h (1 Bft)
03.03.2014 19:15 2,4 C 95 % 997,3 hPa 0,0 l/m 2,3 km/h (1 Bft) S-SO 157 1,7 C 2,7 C 4,5 km/h (1 Bft)
03.03.2014 19:20 2,4 C 95 % 997,3 hPa 0,0 l/m 2,9 km/h (1 Bft) O-SO 112 1,7 C 2,6 C 6,8 km/h (2 Bft)
03.03.2014 19:25 2,3 C 95 % 997,3 hPa 0,0 l/m 3,7 km/h (1 Bft) S-SO 157 1,6 C 2,1 C 6,4 km/h (2 Bft)
03.03.2014 19:30 2,2 C 95 % 997,4 hPa 0,0 l/m 3,5 km/h (1 Bft) S-SO 157 1,5 C 2,1 C 2,4 km/h (1 Bft)
03.03.2014 19:35 2,2 C 95 % 997,4 hPa 0,0 l/m 3,2 km/h (1 Bft) O-SO 112 1,5 C 2,3 C 3,9 km/h (1 Bft)
03.03.2014 19:40 2,2 C 95 % 997,4 hPa 0,0 l/m 3,4 km/h (1 Bft) O 90 1,5 C 2,2 C 3,5 km/h (1 Bft)
03.03.2014 19:45 2,1 C 95 % 997,4 hPa 0,0 l/m 3,5 km/h (1 Bft) O 90 1,4 C 1,9 C 1,6 km/h (1 Bft)
03.03.2014 19:50 2,0 C 95 % 997,5 hPa 0,0 l/m 2,3 km/h (1 Bft) O-SO 112 1,3 C 2,5 C 0,0 km/h (0 Bft)
03.03.2014 19:55 2,0 C 95 % 997,5 hPa 0,0 l/m 1,3 km/h (1 Bft) SO 135 1,3 C 2,4 C 1,6 km/h (1 Bft)
03.03.2014 20:00 2,0 C 95 % 997,5 hPa 0,0 l/m 0,3 km/h (0 Bft) O-SO 112 1,3 C 2,4 C 0,0 km/h (0 Bft)
03.03.2014 20:05 2,0 C 95 % 997,5 hPa 0,0 l/m 0,2 km/h (0 Bft) O-SO 112 1,3 C 2,3 C 2,1 km/h (1 Bft)
03.03.2014 20:10 2,0 C 96 % 997,5 hPa 0,0 l/m 1,6 km/h (1 Bft) S 180 1,4 C 2,3 C 4,2 km/h (1 Bft)
03.03.2014 20:15 2,0 C 96 % 997,5 hPa 0,0 l/m 3,1 km/h (1 Bft) S-SW 202 1,4 C 2,1 C 3,7 km/h (1 Bft)
03.03.2014 20:20 1,9 C 96 % 997,5 hPa 0,0 l/m 2,4 km/h (1 Bft) O 90 1,3 C 2,3 C 2,7 km/h (1 Bft)
03.03.2014 20:25 2,0 C 96 % 997,5 hPa 0,0 l/m 1,9 km/h (1 Bft) O-SO 112 1,4 C 2,3 C 5,0 km/h (1 Bft)
03.03.2014 20:30 2,0 C 96 % 997,4 hPa 0,0 l/m 3,1 km/h (1 Bft) SO 135 1,4 C 2,0 C 2,9 km/h (1 Bft)
03.03.2014 20:35 1,9 C 96 % 997,4 hPa 0,0 l/m 2,6 km/h (1 Bft) SO 135 1,3 C 2,4 C 0,0 km/h (0 Bft)
03.03.2014 20:40 1,9 C 96 % 997,4 hPa 0,0 l/m 1,0 km/h (0 Bft) O-SO 112 1,3 C 2,3 C 0,0 km/h (0 Bft)
03.03.2014 20:45 1,9 C 96 % 997,4 hPa 0,0 l/m 0,6 km/h (0 Bft) NO 45 1,3 C 2,2 C 2,7 km/h (1 Bft)
03.03.2014 20:50 1,9 C 96 % 997,6 hPa 0,0 l/m 1,3 km/h (1 Bft) O 90 1,3 C 2,2 C 2,1 km/h (1 Bft)
03.03.2014 20:55 1,9 C 96 % 997,6 hPa 0,0 l/m 1,4 km/h (1 Bft) O 90 1,3 C 2,2 C 0,0 km/h (0 Bft)
03.03.2014 21:00 2,0 C 96 % 997,6 hPa 0,0 l/m 0,5 km/h (0 Bft) O 90 1,4 C 2,3 C 4,8 km/h (1 Bft)
03.03.2014 21:05 1,9 C 96 % 997,6 hPa 0,0 l/m 0,8 km/h (0 Bft) O-NO 67 1,3 C 2,3 C 0,0 km/h (0 Bft)
03.03.2014 21:10 1,9 C 96 % 997,5 hPa 0,0 l/m 0,8 km/h (0 Bft) O-SO 112 1,3 C 2,2 C 1,6 km/h (1 Bft)
03.03.2014 21:15 1,9 C 96 % 997,5 hPa 0,0 l/m 0,6 km/h (0 Bft) O 90 1,3 C 2,2 C 4,5 km/h (1 Bft)
03.03.2014 21:20 1,9 C 96 % 997,5 hPa 0,0 l/m 1,6 km/h (1 Bft) NO 45 1,3 C 2,2 C 0,0 km/h (0 Bft)
03.03.2014 21:25 1,8 C 96 % 997,5 hPa 0,0 l/m 1,6 km/h (1 Bft) NO 45 1,2 C 2,1 C 0,0 km/h (0 Bft)
03.03.2014 21:30 1,8 C 96 % 997,6 hPa 0,0 l/m 1,3 km/h (1 Bft) O-NO 67 1,2 C 2,0 C 2,4 km/h (1 Bft)
03.03.2014 21:35 1,8 C 96 % 997,6 hPa 0,0 l/m 1,9 km/h (1 Bft) O-NO 67 1,2 C 2,0 C 3,4 km/h (1 Bft)
03.03.2014 21:40 1,8 C 96 % 997,6 hPa 0,0 l/m 2,1 km/h (1 Bft) O-SO 112 1,2 C 2,0 C 0,0 km/h (0 Bft)
03.03.2014 21:45 1,8 C 96 % 997,6 hPa 0,0 l/m 1,8 km/h (1 Bft) O-SO 112 1,2 C 1,9 C 7,6 km/h (2 Bft)
03.03.2014 21:50 1,7 C 96 % 997,8 hPa 0,0 l/m 2,6 km/h (1 Bft) NO 45 1,1 C 1,9 C 0,0 km/h (0 Bft)
03.03.2014 21:55 1,6 C 96 % 997,8 hPa 0,0 l/m 2,4 km/h (1 Bft) O-NO 67 1,0 C 1,9 C 0,0 km/h (0 Bft)
03.03.2014 22:00 1,6 C 96 % 997,8 hPa 0,0 l/m 0,2 km/h (0 Bft) NO 45 1,0 C 1,9 C 0,0 km/h (0 Bft)
03.03.2014 22:05 1,6 C 96 % 997,8 hPa 0,0 l/m 0,0 km/h (0 Bft) O 90 1,0 C 1,8 C 0,0 km/h (0 Bft)
03.03.2014 22:10 1,5 C 96 % 997,6 hPa 0,0 l/m 0,6 km/h (0 Bft) S-SO 157 0,9 C 1,8 C 3,5 km/h (1 Bft)
03.03.2014 22:15 1,5 C 96 % 997,6 hPa 0,0 l/m 1,0 km/h (0 Bft) N-NO 22 0,9 C 1,8 C 0,0 km/h (0 Bft)
03.03.2014 22:20 1,5 C 96 % 997,6 hPa 0,0 l/m 1,4 km/h (1 Bft) NO 45 0,9 C 1,7 C 0,0 km/h (0 Bft)
03.03.2014 22:25 1,5 C 96 % 997,6 hPa 0,0 l/m 1,1 km/h (1 Bft) O 90 0,9 C 1,7 C 0,0 km/h (0 Bft)
03.03.2014 22:30 1,4 C 96 % 997,6 hPa 0,0 l/m 0,0 km/h (0 Bft) S-SO 157 0,8 C 1,7 C 0,0 km/h (0 Bft)
03.03.2014 22:35 1,5 C 96 % 997,6 hPa 0,0 l/m 0,2 km/h (0 Bft) O-NO 67 0,9 C 1,7 C 2,3 km/h (1 Bft)
03.03.2014 22:40 1,5 C 96 % 997,6 hPa 0,0 l/m 0,6 km/h (0 Bft) NO 45 0,9 C 1,7 C 0,0 km/h (0 Bft)
03.03.2014 22:45 1,5 C 96 % 997,6 hPa 0,0 l/m 0,6 km/h (0 Bft) O-NO 67 0,9 C 1,7 C 0,0 km/h (0 Bft)
03.03.2014 22:50 1,5 C 96 % 997,6 hPa 0,0 l/m 0,0 km/h (0 Bft) NO 45 0,9 C 1,7 C 0,0 km/h (0 Bft)
03.03.2014 22:55 1,5 C 96 % 997,6 hPa 0,0 l/m 0,5 km/h (0 Bft) NO 45 0,9 C 1,7 C 3,1 km/h (1 Bft)
03.03.2014 23:00 1,5 C 96 % 997,6 hPa 0,0 l/m 1,0 km/h (0 Bft) O-NO 67 0,9 C 1,7 C 0,0 km/h (0 Bft)
03.03.2014 23:05 1,5 C 96 % 997,6 hPa 0,0 l/m 1,3 km/h (1 Bft) O 90 0,9 C 1,7 C 2,1 km/h (1 Bft)
03.03.2014 23:10 1,4 C 96 % 997,6 hPa 0,0 l/m 0,5 km/h (0 Bft) O 90 0,8 C 1,7 C 0,0 km/h (0 Bft)
03.03.2014 23:15 1,4 C 96 % 997,6 hPa 0,0 l/m 0,3 km/h (0 Bft) O-SO 112 0,8 C 1,6 C 0,0 km/h (0 Bft)
03.03.2014 23:20 1,3 C 96 % 997,6 hPa 0,0 l/m 0,0 km/h (0 Bft) O-NO 67 0,7 C 1,6 C 0,0 km/h (0 Bft)
03.03.2014 23:25 1,4 C 96 % 997,6 hPa 0,0 l/m 0,0 km/h (0 Bft) O-NO 67 0,8 C 1,6 C 0,0 km/h (0 Bft)
03.03.2014 23:30 1,4 C 96 % 997,5 hPa 0,0 l/m 0,0 km/h (0 Bft) NO 45 0,8 C 1,6 C 0,0 km/h (0 Bft)
03.03.2014 23:35 1,4 C 97 % 997,5 hPa 0,0 l/m 0,0 km/h (0 Bft) NO 45 1,0 C 1,6 C 0,0 km/h (0 Bft)
03.03.2014 23:40 1,4 C 97 % 997,5 hPa 0,0 l/m 0,0 km/h (0 Bft) O 90 1,0 C 1,6 C 0,0 km/h (0 Bft)
03.03.2014 23:45 1,4 C 97 % 997,5 hPa 0,0 l/m 0,0 km/h (0 Bft) O-SO 112 1,0 C 1,6 C 0,0 km/h (0 Bft)
03.03.2014 23:50 1,4 C 97 % 997,4 hPa 0,0 l/m 0,0 km/h (0 Bft) O-SO 112 1,0 C 1,6 C 0,0 km/h (0 Bft)
03.03.2014 23:55 1,4 C 97 % 997,4 hPa 0,0 l/m 0,0 km/h (0 Bft) NO 45 1,0 C 1,6 C 0,0 km/h (0 Bft)
_ Min-Zeit 05:50 13:15 08:25 - 23:55 - - 05:50 06:25 23:55
Minimum _ -3,7 C 44 % 995,3 hPa - 0,0 km/h (0 Bft) - - -4,2 C -4,0 C 0,0 km/h (0 Bft)
_ Max-Zeit 13:20 23:55 00:05 23:55 10:05 - - 09:40 13:10 10:20
Maximum _ 11,3 C 97 % 999,7 hPa 0,0 l/m 10,1 km/h
S-SW (2 Bft)
- - 3,4 C 12,7 C 21,4 km/h
S-SW (4 Bft)
Durchschnitt _ 2,5 C 85 % 997,1 hPa #0,0 l/m 3,7 km/h (1 Bft) S - -0,1 C 2,3 C 4,5 km/h (1 Bft)